User: anonymous   Login
Location: Unspecified
(0.0000°N, 0.0000°E)
Time: 20:12:20
(UTC+00:00)
Language:

TBA - TO BE ASSIGNED - Orbit

View from above orbital plane
View from above orbital plane
View from above satellite
View from above satellite

Ground track
Ground track

The orbit is defined by the following mean orbital elements,

1 67858U          26145.44882975 +.00000000 +00000-0 +20547-3 0 00003
2 67858  53.1580 205.8923 0001132  79.4576 280.6554 15.34399988    01
Epoch (UTC): 25 May 2026 10:46:18
Eccentricity: 0.0001132
inclination: 53.1580°
perigee height: 462 km
apogee height: 463 km
right ascension of ascending node: 205.8923°
argument of perigee: 79.4576°
revolutions per day: 15.34399988
mean anomaly at epoch: 280.6554°

The dashed part of the orbit path shows where the satellite is in the earth's shadow,  

DLR